Location: Costa Mesa
(33.6411°N, 117.9187°W)
Time: 02:03:58
(UTC+00:00)

Cosmos 1825 Rocket - Pass Details

Date: 10 September 2024
Orbit: 599 x 626 km, 82.5° (Epoch: 10 October)

Event Time Altitude Azimuth Distance (km) Brightness Sun altitude
Rises 13:00:07 0° 341° (NNW) 2,908 6.9 -7.4°
Reaches altitude 10° 13:02:32 10° 332° (NNW) 1,994 6.0 -6.9°
Maximum altitude 13:06:26 32° 270° (W) 1,075 4.3 -6.1°
Drops below altitude 10° 13:10:18 10° 207° (SSW) 1,968 5.8 -5.3°
Sets 13:12:41 0° 197° (SSW) 2,863 6.7 -4.8°
